Location: Unspecified
(42.9300°N, 71.1866°W)
Time: 06:56:57
(UTC-05:00)

GENESIS II - Visible Passes

Search period start: 19 December 2014 00:00
Search period end: 29 December 2014 00:00
Orbit: 519 x 542 km, 64.5° (Epoch: 18 December)

Date Brightness Start Highest point End Pass type
(mag) Time Alt. Az. Time Alt. Az. Time Alt. Az.
19 Dec 6.6 05:53:55 10° N 05:56:39 17° NE 05:59:22 10° E visible
20 Dec 6.5 05:42:44 10° N 05:45:40 19° NE 05:48:35 10° E visible
21 Dec 6.4 05:31:38 10° N 05:34:40 21° NE 05:37:45 10° E visible
22 Dec 6.3 05:21:07 14° N 05:23:39 23° NE 05:26:53 10° E visible
23 Dec 6.2 05:10:39 18° N 05:12:36 25° NE 05:15:59 10° ESE visible
24 Dec 6.0 05:00:14 23° NNE 05:01:33 28° NE 05:05:03 10° ESE visible
24 Dec 5.2 06:35:56 10° NW 06:39:33 31° WSW 06:43:08 10° S visible
25 Dec 5.8 04:49:52 29° NNE 04:50:28 31° NE 04:54:05 10° ESE visible
25 Dec 5.4 06:25:10 11° WNW 06:28:24 28° WSW 06:31:51 10° S visible
26 Dec 5.7 04:39:33 34° NE 04:39:33 34° NE 04:43:05 10° ESE visible
26 Dec 5.5 06:14:52 15° WNW 06:17:13 24° WSW 06:20:31 10° S visible
27 Dec 6.0 04:29:19 32° E 04:29:19 32° E 04:32:03 10° ESE visible
27 Dec 5.7 06:04:38 18° W 06:06:02 22° WSW 06:09:08 10° SSW visible
28 Dec 6.5 04:19:09 24° ESE 04:19:09 24° ESE 04:20:59 10° ESE visible
28 Dec 5.8 05:54:29 19° WSW 05:54:50 19° WSW 05:57:42 10° SSW visible
